Gainesville, GA

10:21 PM EDT on July 27, 2017 (GMT -0400)
Gilmer Memorial

Weather History for KGVL - July, 2013

Change the Weather History Date:

Thursday, July 11, 2013

  Actual Average Record
Temperature  
Mean Temperature 76 °F 79 °F  
Max Temperature 81 °F 88 °F 99 °F (1930)
Min Temperature 71 °F 70 °F 54 °F (1947)
Cooling Degree Days 11 14  
Month to date cooling degree days 117 150  
Year to date cooling degree days 582 646  
Since 1 June cooling degree days 437 471  
Growing Degree Days 26 (Base 50)    
Moisture  
Dew Point 70 °F    
Average Humidity 81    
Maximum Humidity 93    
Minimum Humidity 69    
Precipitation  
Precipitation T in 0.16 in 2.80 in (1948)
Month to date precipitation 6.27 1.69  
Year to date precipitation 27.57 29.00  
Sea Level Pressure  
Sea Level Pressure 29.98 in    
Wind  
Wind Speed 3 mph (West)    
Max Wind Speed 9 mph    
Max Gust Speed 20 mph    
Visibility 10 miles    
Events Rain    
T = Trace of Precipitation, MM = Missing Value Source: NWS Daily Summary

Daily Weather History Graph

Daily Weather History Graph

Search for Another Location

Airport or City:

Trip Planner

Search our weather history database for the weather conditions in past years. The results will help you decide how hot, cold, wet, or windy it might be!

Date:

Astronomy

Jul. 11, 2013 Rise Set
Actual Time 6:32 AM EDT 8:49 PM EDT
Civil Twilight 6:03 AM EDT 9:18 PM EDT
Nautical Twilight 5:28 AM EDT 9:53 PM EDT
Astronomical Twilight 4:49 AM EDT 10:31 PM EDT
Moon 9:39 AM EDT (7/11) 10:41 PM EDT (7/11)
Length of Visible Light 15h 14m
Length of Day
14h 17m
Waxing Crescent, 10% of the Moon is Illuminated
Jul 11
Waxing Crescent
Jul 15
First Quarter
Jul 22
Full
Jul 29
Last Quarter
Aug 6
New

Hourly Weather History & Observations

Time (EDT) Temp. Heat Index Dew Point Humidity Pressure Visibility Wind Dir Wind Speed Gust Speed Precip Events Conditions
12:53 AM 72.0 °F - 69.1 °F 91% 29.98 in 10.0 mi WSW 3.5 mph - N/A   Scattered Clouds
1:02 AM 73.4 °F - 69.8 °F 88% 30.03 in 10.0 mi Variable 3.5 mph - N/A   Mostly Cloudy
1:53 AM 72.0 °F - 69.1 °F 91% 29.97 in 10.0 mi SW 3.5 mph - N/A   Scattered Clouds
2:09 AM 71.6 °F - 69.8 °F 94% 30.02 in 10.0 mi WSW 3.5 mph - N/A   Mostly Cloudy
2:17 AM 73.4 °F - 69.8 °F 88% 30.02 in 10.0 mi West 4.6 mph - N/A   Mostly Cloudy
2:24 AM 73.4 °F - 69.8 °F 88% 30.02 in 10.0 mi West 4.6 mph - N/A   Overcast
2:51 AM 73.4 °F - 69.8 °F 88% 30.01 in 10.0 mi Calm Calm - N/A   Mostly Cloudy
2:53 AM 73.0 °F - 70.0 °F 90% 29.96 in 10.0 mi West 4.6 mph - N/A   Mostly Cloudy
3:00 AM 73.4 °F - 69.8 °F 88% 30.01 in 10.0 mi West 4.6 mph - N/A   Scattered Clouds
3:17 AM 73.4 °F - 69.8 °F 88% 30.01 in 9.0 mi West 3.5 mph - N/A   Mostly Cloudy
3:53 AM 73.0 °F - 70.0 °F 90% 29.95 in 8.0 mi West 4.6 mph - N/A   Overcast
4:29 AM 71.6 °F - 69.8 °F 94% 30.00 in 9.0 mi Calm Calm - N/A   Scattered Clouds
4:53 AM 73.0 °F - 70.0 °F 90% 29.95 in 9.0 mi Calm Calm - N/A   Mostly Cloudy
5:03 AM 71.6 °F - 69.8 °F 94% 29.99 in 9.0 mi Calm Calm - N/A   Mostly Cloudy
5:53 AM 72.0 °F - 69.1 °F 91% 29.95 in 7.0 mi Calm Calm - N/A   Mostly Cloudy
6:02 AM 71.6 °F - 69.8 °F 94% 30.00 in 7.0 mi Calm Calm - N/A   Mostly Cloudy
6:53 AM 72.0 °F - 69.1 °F 91% 29.97 in 4.0 mi Calm Calm - N/A   Overcast
7:53 AM 72.0 °F - 69.1 °F 91% 29.98 in 5.0 mi South 3.5 mph - N/A   Overcast
8:53 AM 73.0 °F - 69.1 °F 87% 29.98 in 10.0 mi SSE 3.5 mph - N/A   Overcast
9:20 AM 73.4 °F - 69.8 °F 88% 30.03 in 10.0 mi SSW 3.5 mph - N/A   Overcast
9:41 AM 73.4 °F - 69.8 °F 88% 30.04 in 10.0 mi SW 3.5 mph - N/A   Overcast
9:53 AM 73.0 °F - 69.1 °F 87% 29.99 in 10.0 mi Calm Calm - N/A   Overcast
10:28 AM 73.4 °F - 69.8 °F 88% 30.03 in 10.0 mi SSW 3.5 mph - N/A   Overcast
10:53 AM 75.0 °F - 66.9 °F 76% 29.99 in 10.0 mi West 4.6 mph - N/A   Mostly Cloudy
11:02 AM 75.2 °F - 68.0 °F 78% 30.03 in 10.0 mi West 5.8 mph - N/A   Scattered Clouds
11:49 AM 77.0 °F - 68.0 °F 74% 30.03 in 10.0 mi WNW 3.5 mph - N/A   Mostly Cloudy
11:53 AM 77.0 °F - 68.0 °F 74% 29.99 in 10.0 mi West 5.8 mph - N/A   Mostly Cloudy
12:53 PM 78.1 °F - 69.1 °F 74% 29.98 in 10.0 mi West 4.6 mph - N/A   Mostly Cloudy
1:20 PM 80.6 °F 83.9 °F 69.8 °F 70% 30.01 in 10.0 mi Variable 3.5 mph - N/A   Scattered Clouds
1:46 PM 78.8 °F - 69.8 °F 74% 30.01 in 10.0 mi WNW 3.5 mph - N/A   Mostly Cloudy
1:53 PM 79.0 °F - 70.0 °F 74% 29.96 in 10.0 mi Calm Calm - N/A   Mostly Cloudy
2:53 PM 78.1 °F - 70.0 °F 76% 29.95 in 10.0 mi WNW 3.5 mph - 0.00 in Rain Light Rain
3:44 PM 77.0 °F - 71.6 °F 83% 29.98 in 10.0 mi Calm Calm - 0.00 in Rain Light Rain
3:53 PM 77.0 °F - 71.1 °F 82% 29.94 in 9.0 mi WNW 4.6 mph - 0.00 in Rain Light Rain
4:09 PM 77.0 °F - 71.6 °F 83% 29.98 in 10.0 mi WNW 5.8 mph - 0.00 in   Mostly Cloudy
4:32 PM 78.8 °F - 71.6 °F 78% 29.97 in 10.0 mi WNW 6.9 mph - 0.00 in   Scattered Clouds
4:53 PM 79.0 °F - 71.1 °F 77% 29.91 in 10.0 mi WNW 5.8 mph - 0.00 in   Partly Cloudy
5:53 PM 80.1 °F 83.2 °F 70.0 °F 71% 29.90 in 10.0 mi NW 4.6 mph - N/A   Clear
6:53 PM 80.1 °F 83.2 °F 70.0 °F 71% 29.90 in 10.0 mi West 5.8 mph - N/A   Clear
7:53 PM 78.1 °F - 71.1 °F 79% 29.90 in 10.0 mi SSW 3.5 mph - N/A   Clear
8:53 PM 75.9 °F - 71.1 °F 85% 29.90 in 10.0 mi Calm Calm - N/A   Clear
9:53 PM 75.9 °F - 71.1 °F 85% 29.91 in 10.0 mi West 3.5 mph - N/A   Scattered Clouds
10:53 PM 75.0 °F - 71.1 °F 87% 29.91 in 10.0 mi Calm Calm - N/A   Partly Cloudy
11:53 PM 73.9 °F - 70.0 °F 87% 29.91 in 10.0 mi Calm Calm - N/A   Clear